TimeMST,TemperatureF,Dew PointF,Humidity,Sea Level PressureIn,VisibilityMPH,Wind Direction,Wind SpeedMPH,Gust SpeedMPH,PrecipitationIn,Events,Conditions,WindDirDegrees,DateUTC
12:15 AM,42.8,32.0,66,30.12,10.0,SE,6.9,-,N/A,,Clear,130,2013-12-13 07:15:00
12:35 AM,42.8,32.0,66,30.12,10.0,ESE,4.6,-,N/A,,Clear,110,2013-12-13 07:35:00
12:55 AM,42.8,32.0,66,30.12,10.0,East,5.8,-,N/A,,Clear,100,2013-12-13 07:55:00
1:15 AM,42.8,32.0,66,30.12,10.0,East,6.9,-,N/A,,Clear,100,2013-12-13 08:15:00
1:35 AM,42.8,32.0,66,30.12,10.0,ESE,3.5,-,N/A,,Clear,120,2013-12-13 08:35:00
1:55 AM,42.8,32.0,66,30.12,10.0,ESE,4.6,-,N/A,,Clear,120,2013-12-13 08:55:00
2:15 AM,42.8,32.0,66,30.13,10.0,East,4.6,-,N/A,,Clear,90,2013-12-13 09:15:00
2:35 AM,42.8,32.0,66,30.12,10.0,East,8.1,-,N/A,,Clear,100,2013-12-13 09:35:00
2:55 AM,42.8,32.0,66,30.13,10.0,ESE,5.8,-,N/A,,Clear,110,2013-12-13 09:55:00
3:15 AM,42.8,32.0,66,30.13,10.0,SE,6.9,-,N/A,,Clear,130,2013-12-13 10:15:00
3:35 AM,41.0,32.0,70,30.13,10.0,SE,6.9,-,N/A,,Clear,130,2013-12-13 10:35:00
3:55 AM,41.0,30.2,65,30.13,10.0,ESE,5.8,-,N/A,,Clear,120,2013-12-13 10:55:00
4:15 AM,41.0,30.2,65,30.12,10.0,SE,5.8,-,N/A,,Clear,130,2013-12-13 11:15:00
4:35 AM,41.0,30.2,65,30.13,10.0,SE,4.6,-,N/A,,Clear,130,2013-12-13 11:35:00
4:47 AM,41.0,30.2,65,30.13,20.0,ESE,4.6,-,N/A,,Clear,120,2013-12-13 11:47:00
4:55 AM,41.0,32.0,70,30.13,10.0,Calm,Calm,-,N/A,,Clear,0,2013-12-13 11:55:00
5:15 AM,39.2,32.0,75,30.12,10.0,East,5.8,-,N/A,,Clear,100,2013-12-13 12:15:00
5:35 AM,37.4,32.0,81,30.11,10.0,East,8.1,-,N/A,,Clear,100,2013-12-13 12:35:00
5:47 AM,41.0,32.0,70,30.11,20.0,ESE,5.8,-,N/A,,Clear,120,2013-12-13 12:47:00
6:47 AM,39.2,30.2,70,30.15,20.0,East,5.8,-,N/A,,Partly Cloudy,90,2013-12-13 13:47:00
7:47 AM,41.0,30.2,65,30.15,45.0,East,5.8,-,N/A,,Clear,100,2013-12-13 14:47:00
8:47 AM,44.6,32.0,61,30.17,45.0,SE,4.6,-,N/A,,Clear,130,2013-12-13 15:47:00
9:47 AM,53.6,33.8,47,30.18,45.0,SE,9.2,-,N/A,,Clear,130,2013-12-13 16:47:00
10:47 AM,-9999,-9999,N/A,30.19,45.0,SE,5.8,-,N/A,,Clear,130,2013-12-13 17:47:00
11:50 AM,-9999,-9999,N/A,30.18,45.0,Calm,Calm,-,N/A,,Clear,0,2013-12-13 18:50:00
12:47 PM,-9999,-9999,N/A,30.15,45.0,Calm,Calm,-,N/A,,Clear,0,2013-12-13 19:47:00
1:54 PM,60.8,28.4,29,30.12,45.0,Calm,Calm,-,N/A,,Clear,0,2013-12-13 20:54:00
2:47 PM,60.8,26.6,27,30.12,35.0,SSW,5.8,-,N/A,,Clear,210,2013-12-13 21:47:00
3:47 PM,60.8,26.6,27,30.11,35.0,West,3.5,-,N/A,,Clear,270,2013-12-13 22:47:00
4:47 PM,60.8,26.6,27,30.10,35.0,WSW,3.5,-,N/A,,Clear,250,2013-12-13 23:47:00
7:55 PM,51.8,30.2,44,30.14,10.0,Calm,Calm,-,N/A,,Clear,0,2013-12-14 02:55:00
8:15 PM,51.8,32.0,47,30.15,10.0,Calm,Calm,-,N/A,,Clear,0,2013-12-14 03:15:00
8:35 PM,46.4,30.2,53,30.15,10.0,Calm,Calm,-,N/A,,Clear,0,2013-12-14 03:35:00
8:47 PM,48.2,30.2,50,30.16,20.0,Calm,Calm,-,N/A,,Partly Cloudy,0,2013-12-14 03:47:00
8:55 PM,44.6,32.0,61,30.16,10.0,SE,4.6,-,N/A,,Clear,130,2013-12-14 03:55:00
9:15 PM,44.6,32.0,61,30.16,10.0,SE,3.5,-,N/A,,Clear,140,2013-12-14 04:15:00
9:35 PM,44.6,32.0,61,30.17,10.0,ESE,4.6,-,N/A,,Clear,120,2013-12-14 04:35:00
9:55 PM,44.6,32.0,61,30.17,10.0,ESE,4.6,-,N/A,,Clear,120,2013-12-14 04:55:00
10:15 PM,42.8,32.0,66,30.17,10.0,East,8.1,-,N/A,,Clear,100,2013-12-14 05:15:00
10:35 PM,44.6,32.0,61,30.17,10.0,ESE,4.6,-,N/A,,Clear,120,2013-12-14 05:35:00
10:47 PM,44.6,32.0,61,30.18,20.0,East,4.6,-,N/A,,Partly Cloudy,90,2013-12-14 05:47:00
10:55 PM,42.8,32.0,66,30.18,10.0,ESE,4.6,-,N/A,,Clear,110,2013-12-14 05:55:00
11:15 PM,42.8,32.0,66,30.18,10.0,ESE,5.8,-,N/A,,Clear,110,2013-12-14 06:15:00
11:35 PM,42.8,32.0,66,30.19,10.0,ESE,4.6,-,N/A,,Clear,120,2013-12-14 06:35:00
11:47 PM,42.8,33.8,70,30.19,20.0,SE,3.5,-,N/A,,Partly Cloudy,130,2013-12-14 06:47:00
11:55 PM,41.0,32.0,70,30.19,10.0,ESE,4.6,-,N/A,,Clear,120,2013-12-14 06:55:00